Regional Weather Roundup
Issued by NWS Kansas City/Pleasant Hill, MO

Home | Current Version | Previous Version | Text Only | Print | Product List | Glossary On
Versions: 1 2 3 4 5 6 7 8 9 10 11 12 13 14 15 16 17 18 19 20 21 22 23 24 25 26 27 28 29 30 31 32 33 34 35 36 37 38 39 40 41 42 43 44 45 46 47 48 49 50
000
ASUS43 KEAX 252010
RWREAX

WEATHER ROUNDUP FOR EASTERN KANSAS AND NORTHWEST MISSOURI
NATIONAL WEATHER SERVICE KANSAS CITY/PLEASANT HILL MO
300 PM CDT MON SEP 25 2017

KSZ040-057-103>105-MOZ028-029-037-043-252100-
...KANSAS CITY METROPOLITAN AREA...

CITY           SKY/WX    TMP DP  RH WIND       PRES   REMARKS
K.C. INTL      PTSUNNY   86  67  52 S16       29.88F
K.C. DOWNTOWN  CLOUDY    88  66  48 S12       29.87F HX  90
LEES SUMMIT    MOSUNNY   88  66  48 S13G22    29.90F HX  90
OLATHE - IXD   PTSUNNY   86  67  52 S10       29.89F
OLATHE - OJC   MOSUNNY   84  66  54 S12G22    29.90F
LAWRENCE       CLOUDY    86  66  51 S13       29.87F

$$

MOZ001>008-011>017-020>025-030>033-038>040-044>046-053-054-252100-
...NORTHERN AND CENTRAL MISSOURI...

CITY           SKY/WX    TMP DP  RH WIND       PRES   REMARKS
ST. JOSEPH     MOSUNNY   89  68  49 S16G24    29.85F HX  93
MOSBY          PTCLDY    86  63  45 S9        29.88F
WARRENSBURG    MOSUNNY   86  63  45 SE9       29.90F
WHITEMAN AFB   MOSUNNY   87  64  46 SW10      29.90F
CLINTON        SUNNY     86  66  51 S10       29.91F
SEDALIA        MOSUNNY   86  67  52 S13       29.93F
WARSAW         NOT AVBL
CHILLICOTHE      N/A     87  67  51 VRB6      29.89F HX  90
KIRKSVILLE     MOSUNNY   84  67  56 W8        29.91F

$$

MOZ041-047>049-056>058-063>065-088>090-097-252100-
...EASTERN AND SOUTHERN MISSOURI...

CITY           SKY/WX    TMP DP  RH WIND       PRES   REMARKS
ST. LOUIS INTL MOSUNNY   89  64  43 VRB5      29.93F HX  90
SPIRIT OF STL  PTSUNNY   89  66  46 NE6       29.90F HX  91
COLUMBIA       MOSUNNY   88  65  46 SE9       29.93F HX  90
JEFFERSON CITY MOSUNNY   86  63  45 SE7       29.91F
ROLLA          PTSUNNY   88  61  40 VRB6      29.95F
OSAGE BEACH    PTSUNNY   86  65  49 S8        29.94F
SPRINGFIELD    SUNNY     86  63  45 SE14G21   29.93F
BRANSON        PTSUNNY   86  59  39 SE8       29.95F
JOPLIN         SUNNY     86  65  49 S6        29.91F
WEST PLAINS    MOSUNNY   87  58  37 SE9       29.97F

$$

IAZ060-094-KSZ022-034>040-054-083-096-NEZ052-066-093-252100-
...KANSAS...SOUTHEAST NEBRASKA AND IOWA...

CITY           SKY/WX    TMP DP  RH WIND       PRES   REMARKS
TOPEKA         CLOUDY    86  67  52 SE10      29.85F
MANHATTAN      CLOUDY    68  65  90 N8        29.90F
EMPORIA        PTSUNNY   84  63  49 SE15G23   29.86F
CHANUTE        PTSUNNY   85  66  53 S15       29.89F
WICHITA        TSTM      70  68  93 NW13      29.88S
OMAHA          CLOUDY    68  63  84 N9        29.91F
LINCOLN        CLOUDY    62  60  93 NE7       29.95R
FALLS CITY     CLOUDY    73  69  87 NW6       29.87R
LAMONI         MOSUNNY   85  66  53 S9        29.87F
DES MOINES     PTSUNNY   85  68  56 N5        29.84F THUNDER

$$




USA.gov is the U.S. government's official web portal to all federal, state and local government web resources and services.